Location: New Town
(33.2710°N, 90.7534°W)
Time: 01:07:06
(UTC+00:00)

Transit 4A - Visible Passes

Search period start: 12 May 2021 00:00
Search period end: 22 May 2021 00:00
Orbit: 870 x 974 km, 66.8° (Epoch: 11 May)

Date Brightness Start Highest point End Pass type
(mag) Time Alt. Az. Time Alt. Az. Time Alt. Az.
12 May 10.8 07:57:15 10° NNE 07:59:03 11° NE 08:00:51 10° ENE visible
12 May 7.9 09:40:27 10° NNW 09:46:18 80° ENE 09:52:06 10° SSE visible
13 May 10.4 08:04:58 10° N 08:08:45 17° NE 08:12:30 10° E visible
13 May 7.7 09:49:47 10° NNW 09:55:33 65° WSW 10:01:18 10° SSE visible
14 May 9.8 08:13:31 10° N 08:18:19 26° NE 08:23:06 10° ESE visible
14 May 8.1 09:59:20 10° NW 10:04:44 41° WSW 10:10:08 10° S visible
15 May 9.1 08:22:23 10° N 08:27:48 39° ENE 08:33:12 10° SE visible
15 May 8.7 10:09:12 10° NW 10:13:51 25° WSW 10:18:32 10° SSW visible
16 May 8.2 08:31:26 10° NNW 08:37:12 60° ENE 08:42:56 10° SE visible
16 May 9.2 10:19:38 10° WNW 10:22:55 16° WSW 10:26:13 10° SW visible
17 May 10.5 06:56:43 10° NNE 06:59:26 13° NE 07:02:07 10° ENE visible
17 May 7.6 08:40:40 10° NNW 08:46:30 87° WSW 08:50:51 19° SSE visible
18 May 10.0 07:04:53 10° N 07:09:04 20° NE 07:13:15 10° E visible
18 May 7.8 08:50:04 10° NW 08:55:44 55° WSW 08:57:01 46° SSW visible
19 May 9.4 07:13:34 10° N 07:18:37 30° NE 07:20:53 23° E visible
19 May 8.4 08:59:43 10° NW 09:04:17 33° W 09:04:17 33° W visible
20 May 8.6 07:22:30 10° NNW 07:28:04 45° ENE 07:28:37 44° ENE visible
20 May 9.3 09:09:43 10° WNW 09:12:02 18° W 09:12:02 18° W visible
21 May 8.1 07:31:36 10° NNW 07:36:39 62° NNE 07:36:39 62° NNE visible
